This is the latest recevied weather packets stored in our database for station/object OH2HCY-3. If no packets are shown the sender has not sent any weather packets the latest 10 day(s).
| Time | Temp. | Humidity | Pressure | Rain* | Wind** | Luminosity | Snow |
|---|---|---|---|---|---|---|---|
| 1777907945 | 10° C | 76% | 1002.4 hPa | - | - | - | - |
| 1777906885 | 10° C | 79% | 1002.2 hPa | - | - | - | - |
| 1777905925 | 10° C | 78% | 1002.4 hPa | - | - | - | - |
| 1777904930 | 10° C | 78% | 1002.4 hPa | - | - | - | - |
| 1777903870 | 10° C | 77% | 1002.5 hPa | - | - | - | - |
| 1777902914 | 10° C | 77% | 1002.2 hPa | - | - | - | - |
| 1777902910 | 10° C | 77% | 1002.2 hPa | - | - | - | - |
| 1777901815 | 9.44° C | 80% | 1002.2 hPa | - | - | - | - |
| 1777900632 | 8.89° C | 84% | 1002.3 hPa | - | - | - | - |
| 1777899510 | 8.89° C | 86% | 1002.4 hPa | - | - | - | - |
| 1777898405 | 8.33° C | 84% | 1002.4 hPa | - | - | - | - |
| 1777897444 | 8.33° C | 82% | 1002.6 hPa | - | - | - | - |
| 1777897440 | 8.33° C | 82% | 1002.6 hPa | - | - | - | - |
| 1777896450 | 8.33° C | 84% | 1002.6 hPa | - | - | - | - |
| 1777895265 | 7.78° C | 84% | 1002.8 hPa | - | - | - | - |
| 1777894230 | 7.78° C | 85% | 1002.8 hPa | - | - | - | - |
| 1777893091 | 7.78° C | 86% | 1002.8 hPa | - | - | - | - |
| 1777892122 | 7.78° C | 86% | - | - | - | - | - |
| 1777892117 | 7.78° C | 86% | 1002.8 hPa | - | - | - | - |
| 1777891073 | 7.22° C | 80% | - | - | - | - | - |
| 1777891070 | 7.22° C | 86% | 1003.1 hPa | - | - | - | - |
| 1777889894 | 7.22° C | 84% | 1003.4 hPa | - | - | - | - |
| 1777888816 | 7.22° C | 83% | 1003.6 hPa | - | - | - | - |
| 1777887786 | 6.67° C | 83% | 1003.8 hPa | - | - | - | - |
| 1777886645 | 6.67° C | 82% | 1004.1 hPa | - | - | - | - |
* Rain since midnight (hover to see other rain measurements)
** Current wind speed in m/s (hover to see current wind gust speed)